TimeCST,TemperatureF,Dew PointF,Humidity,Sea Level PressureIn,VisibilityMPH,Wind Direction,Wind SpeedMPH,Gust SpeedMPH,PrecipitationIn,Events,Conditions,WindDirDegrees,DateUTC
12:15 AM,30.2,26.6,86,30.14,10.0,Calm,Calm,-,N/A,,Clear,0,2013-02-04 06:15:00
12:35 AM,30.2,26.6,86,30.12,10.0,Calm,Calm,-,N/A,,Clear,0,2013-02-04 06:35:00
12:55 AM,30.2,24.8,80,30.12,10.0,Calm,Calm,-,N/A,,Clear,0,2013-02-04 06:55:00
1:15 AM,30.2,26.6,86,30.11,10.0,Calm,Calm,-,N/A,,Clear,0,2013-02-04 07:15:00
1:35 AM,30.2,24.8,80,30.10,10.0,Calm,Calm,-,N/A,,Clear,0,2013-02-04 07:35:00
1:55 AM,30.2,26.6,86,30.10,10.0,Calm,Calm,-,N/A,,Clear,0,2013-02-04 07:55:00
2:15 AM,30.2,26.6,86,30.09,10.0,Calm,Calm,-,N/A,,Clear,0,2013-02-04 08:15:00
2:35 AM,28.4,24.8,86,30.10,10.0,Calm,Calm,-,N/A,,Clear,0,2013-02-04 08:35:00
2:55 AM,30.2,26.6,86,30.10,10.0,Calm,Calm,-,N/A,,Clear,0,2013-02-04 08:55:00
3:15 AM,30.2,26.6,86,30.08,7.0,Calm,Calm,-,N/A,,Clear,0,2013-02-04 09:15:00
3:35 AM,28.4,26.6,93,30.07,10.0,Calm,Calm,-,N/A,,Clear,0,2013-02-04 09:35:00
5:15 AM,30.2,26.6,86,30.10,10.0,Calm,Calm,-,N/A,,Clear,0,2013-02-04 11:15:00
5:35 AM,30.2,26.6,86,30.08,10.0,Calm,Calm,-,N/A,,Clear,0,2013-02-04 11:35:00
5:55 AM,30.2,28.4,93,30.10,10.0,Calm,Calm,-,N/A,,Clear,0,2013-02-04 11:55:00
6:35 AM,32.0,28.4,87,30.11,10.0,Calm,Calm,-,N/A,,Clear,0,2013-02-04 12:35:00
6:55 AM,32.0,28.4,87,30.10,10.0,Calm,Calm,-,N/A,,Clear,0,2013-02-04 12:55:00
7:15 AM,32.0,28.4,87,30.10,10.0,Calm,Calm,-,N/A,,Clear,0,2013-02-04 13:15:00
7:35 AM,32.0,28.4,87,30.11,10.0,Calm,Calm,-,N/A,,Clear,0,2013-02-04 13:35:00
7:55 AM,33.8,28.4,81,30.11,10.0,SE,3.5,-,N/A,,Clear,130,2013-02-04 13:55:00
8:15 AM,33.8,28.4,81,30.12,10.0,Calm,Calm,-,N/A,,Clear,0,2013-02-04 14:15:00
8:35 AM,35.6,28.4,75,30.12,10.0,SE,3.5,-,N/A,,Clear,140,2013-02-04 14:35:00
8:55 AM,35.6,28.4,75,30.10,10.0,SE,4.6,-,N/A,,Clear,140,2013-02-04 14:55:00
9:15 AM,35.6,26.6,70,30.11,10.0,SSE,4.6,-,N/A,,Clear,150,2013-02-04 15:15:00
9:35 AM,37.4,26.6,65,30.10,10.0,SE,6.9,-,N/A,,Clear,140,2013-02-04 15:35:00
9:55 AM,37.4,26.6,65,30.11,10.0,SSE,4.6,-,N/A,,Clear,160,2013-02-04 15:55:00
10:15 AM,39.2,26.6,61,30.11,10.0,South,3.5,-,N/A,,Clear,180,2013-02-04 16:15:00
10:35 AM,41.0,26.6,57,30.09,10.0,SE,5.8,-,N/A,,Clear,130,2013-02-04 16:35:00
10:55 AM,41.0,26.6,57,30.09,10.0,SSE,6.9,-,N/A,,Clear,150,2013-02-04 16:55:00
11:15 AM,42.8,26.6,53,30.08,10.0,SSE,3.5,-,N/A,,Clear,150,2013-02-04 17:15:00
11:35 AM,42.8,26.6,53,30.09,10.0,SSE,4.6,-,N/A,,Clear,150,2013-02-04 17:35:00
11:55 AM,44.6,26.6,49,30.06,10.0,SE,4.6,-,N/A,,Clear,140,2013-02-04 17:55:00
12:15 PM,44.6,26.6,49,30.05,10.0,SE,4.6,-,N/A,,Clear,130,2013-02-04 18:15:00
12:35 PM,46.4,24.8,43,30.03,10.0,SSE,5.8,-,N/A,,Clear,150,2013-02-04 18:35:00
12:55 PM,46.4,23.0,40,30.03,10.0,South,5.8,-,N/A,,Clear,190,2013-02-04 18:55:00
1:15 PM,50.0,17.6,28,30.02,10.0,South,10.4,-,N/A,,Clear,190,2013-02-04 19:15:00
1:35 PM,50.0,21.2,32,30.01,10.0,South,9.2,-,N/A,,Clear,190,2013-02-04 19:35:00
1:55 PM,50.0,21.2,32,30.01,10.0,SSW,10.4,-,N/A,,Clear,200,2013-02-04 19:55:00
2:15 PM,50.0,19.4,30,30.00,10.0,South,9.2,-,N/A,,Clear,190,2013-02-04 20:15:00
2:35 PM,50.0,23.0,35,29.99,10.0,SSW,8.1,-,N/A,,Clear,210,2013-02-04 20:35:00
2:55 PM,50.0,23.0,35,29.98,10.0,SSW,6.9,-,N/A,,Clear,200,2013-02-04 20:55:00
3:15 PM,50.0,23.0,35,29.98,10.0,SSE,5.8,-,N/A,,Clear,160,2013-02-04 21:15:00
3:35 PM,50.0,23.0,35,29.98,10.0,ESE,5.8,-,N/A,,Clear,110,2013-02-04 21:35:00
3:55 PM,50.0,23.0,35,29.98,10.0,Calm,Calm,-,N/A,,Clear,0,2013-02-04 21:55:00
4:15 PM,50.0,23.0,35,29.98,10.0,South,5.8,-,N/A,,Clear,170,2013-02-04 22:15:00
4:35 PM,50.0,21.2,32,29.98,10.0,South,6.9,-,N/A,,Clear,180,2013-02-04 22:35:00
4:55 PM,50.0,23.0,35,29.99,10.0,SSW,6.9,-,N/A,,Clear,200,2013-02-04 22:55:00
5:15 PM,50.0,19.4,30,29.99,10.0,South,6.9,-,N/A,,Clear,180,2013-02-04 23:15:00
5:35 PM,50.0,19.4,30,30.00,10.0,South,6.9,-,N/A,,Clear,180,2013-02-04 23:35:00
5:55 PM,48.2,19.4,32,30.00,10.0,South,4.6,-,N/A,,Clear,170,2013-02-04 23:55:00
6:15 PM,48.2,21.2,34,30.00,10.0,South,9.2,-,N/A,,Clear,180,2013-02-05 00:15:00
6:35 PM,48.2,21.2,34,29.99,10.0,South,6.9,-,N/A,,Clear,170,2013-02-05 00:35:00
6:55 PM,46.4,23.0,40,29.98,10.0,South,8.1,-,N/A,,Clear,170,2013-02-05 00:55:00
7:15 PM,46.4,23.0,40,29.98,10.0,South,9.2,-,N/A,,Scattered Clouds,180,2013-02-05 01:15:00
7:35 PM,46.4,23.0,40,29.98,10.0,South,8.1,-,N/A,,Scattered Clouds,180,2013-02-05 01:35:00
7:55 PM,46.4,23.0,40,29.98,10.0,SSE,4.6,-,N/A,,Scattered Clouds,160,2013-02-05 01:55:00
8:15 PM,46.4,23.0,40,29.97,10.0,South,5.8,-,N/A,,Scattered Clouds,170,2013-02-05 02:15:00
8:35 PM,46.4,23.0,40,29.97,10.0,South,3.5,-,N/A,,Scattered Clouds,170,2013-02-05 02:35:00
8:55 PM,46.4,24.8,43,29.97,10.0,South,4.6,-,N/A,,Scattered Clouds,170,2013-02-05 02:55:00
9:15 PM,46.4,26.6,46,29.97,10.0,SSE,3.5,-,N/A,,Scattered Clouds,160,2013-02-05 03:15:00
9:55 PM,46.4,26.6,46,29.97,10.0,SSE,3.5,-,N/A,,Mostly Cloudy,160,2013-02-05 03:55:00
10:15 PM,44.6,28.4,53,29.97,10.0,Calm,Calm,-,N/A,,Scattered Clouds,0,2013-02-05 04:15:00
10:35 PM,44.6,28.4,53,29.97,10.0,Calm,Calm,-,N/A,,Mostly Cloudy,0,2013-02-05 04:35:00
10:55 PM,44.6,26.6,49,29.96,10.0,SSE,4.6,-,N/A,,Mostly Cloudy,160,2013-02-05 04:55:00
11:15 PM,44.6,28.4,53,29.96,10.0,SSE,4.6,-,N/A,,Mostly Cloudy,160,2013-02-05 05:15:00
11:35 PM,46.4,28.4,50,29.96,10.0,South,4.6,-,N/A,,Overcast,170,2013-02-05 05:35:00
11:55 PM,44.6,30.2,57,29.95,10.0,Calm,Calm,-,N/A,,Overcast,0,2013-02-05 05:55:00